Вернуться в каталог

CZ-6A DEB

АктивенPO
NORAD 61175·DEBRIS·🇨🇳 China

Запущен Aug 6, 2024 с Taiyuan Satellite Launch Center

Loading…

Ближайшие Пролёты (ближайшие 24 часа)

TLE

СвежийSource: Space-Track

Эпоха: Sep 14, 2026, 12:00 UTC

1 61175U 24140RV  26257.50023446  .00000219  00000-0  15103-3 0  9992
2 61175  89.0577 274.6365 0202309  21.2414 339.7006 13.86428105104293

Отслеживайте CZ-6A DEB в реальном времени с AllMySat

Download on the App Store